EW1268 Weather Reports


Display with metric or nautical units.
time (UTC)temp
F
wind
direction
speed
MPH
gust
MPH
rain 1hr
in
rain 24hr
in
rain mn
in
humidity
%
barometer
mb
20260905032014 82 157 3.0 11.0 0.00 0.07 0.07 88 1013.5
20260905031532 83 198 3.0 11.0 0.00 0.07 0.07 88 1013.5
20260905031013 83 205 3.0 11.0 0.00 0.07 0.07 88 1013.5
20260905030506 83 188 3.0 11.0 0.00 0.07 0.07 88 1013.6
20260905030013 83 150 2.0 9.0 0.00 0.07 0.07 88 1013.5
20260905025507 83 178 4.0 9.0 0.00 0.07 0.07 88 1013.5
20260905025009 83 191 3.0 9.0 0.00 0.07 0.07 88 1013.5
20260905024520 83 148 3.0 9.0 0.00 0.07 0.07 88 1013.3
20260905024012 82 178 2.0 7.0 0.00 0.07 0.07 88 1013.2
20260905023514 82 157 2.0 6.0 0.00 0.07 0.07 87 1013.2
20260905023031 82 178 1.0 5.0 0.00 0.07 0.07 86 1013.3
20260905022506 82 171 1.0 4.0 0.00 0.07 0.07 85 1013.3
20260905022006 83 178 1.0 4.0 0.00 0.07 0.07 84 1013.2
20260905021513 83 157 1.0 3.0 0.00 0.07 0.07 84 1013.2
20260905021010 83 137 0.0 3.0 0.00 0.07 0.07 84 1013.0
20260905020512 83 34 1.0 3.0 0.00 0.07 0.07 83 1012.9
20260905020026 83 137 0.0 3.0 0.00 0.07 0.07 82 1012.7
20260905015515 84 153 1.0 5.0 0.00 0.07 0.07 81 1012.7
20260905015013 84 76 0.0 5.0 0.00 0.07 0.07 81 1012.7
20260905014508 84 51 0.0 2.0 0.00 0.07 0.07 80 1012.7
20260905014011 84 137 0.0 5.0 0.00 0.07 0.07 80 1012.8
20260905013508 84 137 1.0 5.0 0.00 0.07 0.07 79 1012.7
20260905013017 85 165 0.0 2.0 0.00 0.07 0.07 78 1012.7
20260905012513 85 93 1.0 2.0 0.00 0.07 0.07 78 1012.5
20260905012012 85 137 0.0 7.0 0.00 0.07 0.07 77 1012.4
20260905011529 86 103 1.0 7.0 0.00 0.07 0.07 77 1012.4
20260905011016 86 93 2.0 6.0 0.00 0.07 0.07 78 1012.5
20260905010504 87 44 1.0 6.0 0.00 0.07 0.07 78 1012.4
20260905010010 87 142 2.0 6.0 0.00 0.07 0.07 78 1012.3
20260905005510 87 161 2.0 7.0 0.00 0.07 0.07 77 1012.3
20260905005012 88 129 3.0 7.0 0.00 0.07 0.07 77 1012.3
20260905004521 88 148 2.0 6.0 0.00 0.07 0.07 77 1012.3
20260905004019 88 165 2.0 5.0 0.00 0.07 0.07 76 1012.3
20260905003516 89 137 1.0 6.0 0.00 0.07 0.07 76 1012.2
20260905003031 89 209 2.0 9.0 0.00 0.07 0.07 75 1012.1
20260905002517 89 161 3.0 9.0 0.00 0.07 0.07 75 1012.0
20260905002009 89 178 2.0 8.0 0.00 0.07 0.07 75 1011.9
20260905001514 90 137 2.0 8.0 0.00 0.07 0.07 74 1011.9
20260905001013 90 136 4.0 10.0 0.00 0.07 0.07 73 1011.8
20260905000512 91 167 4.0 10.0 0.00 0.07 0.07 73 1011.8
20260905000034 91 161 3.0 10.0 0.00 0.07 0.07 72 1011.8
20260904235513 92 167 4.0 10.0 0.00 0.07 0.07 71 1011.8
20260904235016 92 198 3.0 9.0 0.00 0.07 0.07 70 1011.8
20260904234538 92 178 4.0 7.0 0.00 0.07 0.07 69 1011.7
20260904234009 92 161 2.0 9.0 0.00 0.07 0.07 71 1011.7
20260904233508 92 178 3.0 9.0 0.00 0.07 0.07 71 1011.7
20260904233023 92 93 1.0 7.0 0.00 0.07 0.07 71 1011.7
20260904232513 92 178 3.0 9.0 0.00 0.07 0.07 70 1011.7
20260904232019 92 170 3.0 10.0 0.00 0.07 0.07 70 1011.6
20260904231532 92 178 4.0 10.0 0.00 0.07 0.07 69 1011.6
20260904231014 93 146 1.0 4.0 0.00 0.07 0.07 69 1011.7
20260904230518 93 83 1.0 3.0 0.00 0.07 0.07 69 1011.6
20260904230034 93 157 1.0 4.0 0.00 0.07 0.07 67 1011.7
20260904225510 94 51 1.0 4.0 0.00 0.07 0.07 67 1011.8
20260904225013 94 325 1.0 4.0 0.00 0.07 0.07 67 1011.8
20260904224526 95 216 1.0 4.0 0.00 0.07 0.07 64 1011.8
20260904224014 96 178 0.0 6.0 0.00 0.07 0.07 66 1011.9
20260904223514 97 178 2.0 6.0 0.00 0.07 0.07 64 1011.9
20260904223031 97 221 1.0 8.0 0.00 0.07 0.07 64 1011.8
20260904222516 97 146 3.0 8.0 0.00 0.07 0.07 64 1011.9
20260904222009 97 302 2.0 6.0 0.00 0.07 0.07 63 1011.9
20260904221516 98 205 2.0 6.0 0.00 0.07 0.07 65 1012.0
20260904221012 97 119 2.0 5.0 0.00 0.07 0.07 66 1012.0
20260904220512 97 178 2.0 7.0 0.00 0.07 0.07 64 1012.0
20260904220029 98 137 2.0 9.0 0.00 0.07 0.07 65 1012.0
20260904215516 98 245 4.0 9.0 0.00 0.07 0.07 64 1012.1
20260904215018 97 190 4.0 9.0 0.00 0.07 0.07 65 1012.0
20260904214533 97 67 1.0 7.0 0.00 0.07 0.07 68 1012.1
20260904214010 97 115 2.0 7.0 0.00 0.07 0.07 68 1012.1
20260904213512 97 238 2.0 6.0 0.00 0.07 0.07 70 1012.1
20260904213021 98 329 2.0 4.0 0.00 0.07 0.07 66 1012.2
20260904212515 98 161 2.0 5.0 0.00 0.08 0.07 69 1012.4
20260904212015 97 107 1.0 6.0 0.00 0.08 0.07 70 1012.4
20260904211530 97 209 2.0 6.0 0.00 0.09 0.07 71 1012.4
20260904211016 96 101 2.0 6.0 0.00 0.09 0.07 68 1012.4
20260904210518 97 184 2.0 6.0 0.00 0.10 0.07 70 1012.4
20260904210020 96 107 2.0 6.0 0.00 0.11 0.07 72 1012.4
20260904205511 96 232 2.0 6.0 0.00 0.12 0.07 70 1012.5
20260904205012 96 93 2.0 10.0 0.00 0.14 0.07 71 1012.7
20260904204527 96 334 1.0 10.0 0.00 0.15 0.07 73 1012.8
20260904204018 95 225 3.0 7.0 0.00 0.17 0.07 74 1012.9
20260904203514 95 161 2.0 7.0 0.00 0.17 0.07 74 1013.0
20260904203034 94 309 1.0 7.0 0.00 0.18 0.07 76 1013.2
20260904202519 94 137 1.0 7.0 0.00 0.18 0.07 76 1013.2
20260904202014 94 123 1.0 5.0 0.00 0.18 0.07 81 1013.3
20260904201516 93 319 1.0 4.0 0.01 0.18 0.07 80 1013.3
20260904201014 92 51 1.0 4.0 0.01 0.18 0.07 83 1013.5
20260904200512 91 88 1.0 4.0 0.01 0.18 0.07 83 1013.5
20260904200047 91 31 2.0 7.0 0.01 0.18 0.07 83 1013.5
20260904195517 90 124 2.0 7.0 0.01 0.18 0.07 87 1013.7
20260904195017 89 144 2.0 7.0 0.01 0.19 0.07 88 1013.9
20260904194542 88 119 1.0 5.0 0.01 0.21 0.07 90 1014.0
20260904194013 86 265 2.0 5.0 0.01 0.21 0.07 91 1013.9
20260904193508 85 131 2.0 4.0 0.01 0.21 0.07 91 1013.9
20260904193020 85 90 2.0 4.0 0.01 0.22 0.07 92 1013.9
20260904192519 84 103 2.0 4.0 0.01 0.23 0.07 92 1013.9
20260904192016 83 58 1.0 2.0 0.01 0.23 0.07 92 1013.8
20260904191527 83 83 1.0 3.0 0.00 0.22 0.06 91 1013.9
20260904191005 82 19 1.0 3.0 0.00 0.26 0.06 90 1014.0
20260904190505 82 9 0.0 5.0 0.00 0.41 0.06 90 1014.1
20260904190012 82 221 0.0 6.0 0.00 0.58 0.06 90 1014.2
20260904185508 82 211 2.0 6.0 0.00 0.70 0.06 90 1014.5
20260904185013 82 58 0.0 2.0 0.00 0.80 0.06 91 1014.6
20260904184538 82 93 0.0 2.0 0.00 0.80 0.06 90 1014.7
20260904184015 81 9 0.0 1.0 0.00 0.80 0.06 91 1014.8
20260904183516 81 178 0.0 2.0 0.00 0.80 0.06 91 1014.8
20260904183005 81 67 0.0 2.0 0.00 0.80 0.06 91 1015.0
20260904182508 81 93 0.0 2.0 0.00 0.80 0.06 91 1015.1
20260904182014 80 111 0.0 2.0 0.00 0.80 0.06 92 1015.1
20260904181525 80 153 0.0 3.0 0.00 0.80 0.06 92 1015.1
20260904181017 80 51 0.0 3.0 0.00 0.80 0.06 92 1015.2
20260904180513 80 83 2.0 3.0 0.00 0.80 0.06 92 1015.2
20260904180031 79 109 1.0 2.0 0.00 0.80 0.06 92 1015.3
20260904175515 79 51 0.0 4.0 0.00 0.80 0.06 92 1015.3
20260904175005 79 265 1.0 4.0 0.00 0.80 0.06 92 1015.3
20260904174512 79 83 1.0 4.0 0.00 0.80 0.06 92 1015.3
20260904174010 79 85 1.0 5.0 0.00 0.80 0.06 92 1015.3
20260904173509 80 56 2.0 5.0 0.00 0.80 0.06 93 1015.4
20260904173022 80 24 1.0 3.0 0.03 0.80 0.06 93 1015.4
20260904172515 80 61 1.0 2.0 0.05 0.80 0.06 93 1015.5
20260904172014 80 67 1.0 2.0 0.05 0.80 0.06 92 1015.4
20260904171530 80 93 0.0 3.0 0.06 0.80 0.06 92 1015.4
20260904171005 80 93 1.0 3.0 0.06 0.80 0.06 92 1015.7
20260904170507 80 85 1.0 3.0 0.06 0.80 0.06 92 1015.7
20260904170033 80 34 1.0 2.0 0.06 0.80 0.06 91 1015.4
20260904165511 80 51 0.0 3.0 0.06 0.80 0.06 91 1015.4
20260904165012 81 19 1.0 4.0 0.06 0.80 0.06 91 1015.5
20260904164526 81 124 1.0 4.0 0.06 0.80 0.06 90 1015.4
20260904164017 82 93 2.0 7.0 0.06 0.80 0.06 89 1015.3
20260904163516 83 123 1.0 7.0 0.06 0.80 0.06 89 1015.4
20260904163006 83 93 3.0 7.0 0.03 0.77 0.03 88 1015.2
20260904162508 84 192 2.0 4.0 0.01 0.75 0.01 87 1015.2
20260904162011 84 178 2.0 4.0 0.01 0.75 0.01 87 1015.4
20260904161520 85 98 1.0 5.0 0.00 0.74 0.00 86 1015.3
20260904161016 85 51 1.0 4.0 0.00 0.74 0.00 86 1015.2
20260904160514 85 254 1.0 6.0 0.00 0.74 0.00 85 1015.1
20260904160030 85 309 2.0 8.0 0.00 0.74 0.00 84 1014.8
20260904155519 86 213 1.0 8.0 0.00 0.74 0.00 84 1014.9
20260904155007 87 272 3.0 8.0 0.00 0.74 0.00 82 1014.5
20260904154511 87 257 1.0 8.0 0.00 0.74 0.00 83 1014.5
20260904154011 88 196 2.0 8.0 0.00 0.74 0.00 83 1014.6
20260904153511 89 232 2.0 8.0 0.00 0.74 0.00 83 1014.4
20260904153027 89 265 1.0 8.0 0.00 0.74 0.00 81 1014.3
20260904152511 90 247 1.0 9.0 0.00 0.74 0.00 82 1014.3
20260904152015 89 214 2.0 9.0 0.00 0.74 0.00 84 1014.4
20260904151533 89 162 3.0 9.0 0.00 0.74 0.00 86 1014.4
20260904151004 88 178 1.0 4.0 0.00 0.74 0.00 85 1014.3
20260904150511 88 298 1.0 5.0 0.00 0.74 0.00 84 1014.2
20260904150016 88 207 1.0 6.0 0.00 0.74 0.00 87 1014.2
20260904145513 88 161 2.0 6.0 0.00 0.74 0.00 88 1014.3
20260904145012 87 186 2.0 5.0 0.00 0.74 0.00 88 1014.3
20260904144527 86 93 1.0 4.0 0.00 0.74 0.00 88 1014.3
20260904144017 86 161 1.0 6.0 0.00 0.74 0.00 89 1014.3
20260904143515 86 171 1.0 6.0 0.00 0.74 0.00 90 1014.3
20260904143009 85 126 2.0 9.0 0.00 0.74 0.00 91 1014.3
20260904142508 85 178 4.0 9.0 0.00 0.74 0.00 94 1014.3
20260904142012 84 26 1.0 7.0 0.00 0.74 0.00 94 1014.3
20260904141522 84 41 1.0 6.0 0.00 0.74 0.00 94 1014.2
20260904141012 83 63 2.0 5.0 0.00 0.74 0.00 95 1014.3
20260904140516 83 178 1.0 5.0 0.00 0.74 0.00 95 1014.3
20260904140030 83 178 1.0 5.0 0.00 0.74 0.00 95 1014.3
20260904135519 82 221 2.0 7.0 0.00 0.74 0.00 96 1014.3
20260904135011 82 157 1.0 7.0 0.00 0.74 0.00 96 1014.3
20260904134513 82 216 2.0 6.0 0.00 0.74 0.00 96 1014.3
20260904134009 82 153 1.0 4.0 0.00 0.74 0.00 96 1014.2
20260904133514 82 119 1.0 6.0 0.00 0.74 0.00 96 1014.2
20260904133027 81 136 1.0 8.0 0.00 0.74 0.00 96 1014.1
20260904132517 81 190 1.0 8.0 0.00 0.74 0.00 96 1014.1
20260904132018 81 238 2.0 6.0 0.00 0.74 0.00 97 1014.1
20260904131530 81 132 2.0 5.0 0.00 0.74 0.00 96 1014.0
20260904131008 80 183 1.0 5.0 0.00 0.74 0.00 96 1013.9
20260904130508 80 98 1.0 4.0 0.00 0.74 0.00 96 1013.9
20260904130018 80 115 1.0 2.0 0.00 0.74 0.00 96 1013.9
20260904125511 80 72 1.0 2.0 0.00 0.74 0.00 96 1013.8
20260904125019 79 34 0.0 2.0 0.00 0.74 0.00 96 1013.8
20260904124528 79 51 0.0 2.0 0.00 0.74 0.00 96 1013.8
20260904124016 79 153 0.0 2.0 0.00 0.74 0.00 96 1013.7
20260904123519 79 93 0.0 2.0 0.00 0.74 0.00 96 1013.6
20260904123010 79 93 0.0 2.0 0.00 0.74 0.00 96 1013.6
20260904122510 79 153 0.0 2.0 0.00 0.74 0.00 96 1013.5
20260904122012 79 93 1.0 2.0 0.00 0.74 0.00 96 1013.4
20260904121525 79 67 0.0 2.0 0.00 0.74 0.00 96 1013.4
20260904121019 79 93 0.0 1.0 0.00 0.74 0.00 96 1013.4
20260904120513 79 80 0.0 1.0 0.00 0.74 0.00 96 1013.3
20260904120035 79 51 0.0 1.0 0.00 0.74 0.00 96 1013.2
20260904115517 79 93 0.0 1.0 0.00 0.74 0.00 96 1013.3
20260904115008 79 51 0.0 2.0 0.00 0.74 0.00 96 1013.3
20260904114517 79 93 0.0 2.0 0.00 0.74 0.00 96 1013.2
20260904114010 79 67 0.0 2.0 0.00 0.74 0.00 96 1013.3
20260904113512 79 126 0.0 2.0 0.00 0.74 0.00 96 1013.3
20260904113030 79 126 0.0 1.0 0.00 0.74 0.00 95 1013.3
20260904112514 79 137 0.0 2.0 0.00 0.74 0.00 96 1013.2
20260904112019 79 153 0.0 2.0 0.00 0.74 0.00 96 1013.2
20260904111533 79 93 1.0 2.0 0.00 0.74 0.00 96 1013.2
20260904111009 79 67 0.0 2.0 0.00 0.74 0.00 96 1013.2
20260904110510 79 93 1.0 2.0 0.00 0.74 0.00 96 1013.1
20260904110024 79 93 0.0 2.0 0.00 0.74 0.00 96 1013.2
20260904105512 79 93 1.0 2.0 0.00 0.74 0.00 96 1013.1
20260904105013 79 93 1.0 2.0 0.00 0.74 0.00 95 1013.1
20260904104531 79 9 0.0 2.0 0.00 0.74 0.00 96 1013.1
20260904104019 79 51 0.0 2.0 0.00 0.74 0.00 95 1013.0
20260904103506 79 51 0.0 2.0 0.00 0.74 0.00 95 1013.0
20260904103012 79 93 0.0 2.0 0.00 0.74 0.00 95 1013.0
20260904102512 79 137 0.0 2.0 0.00 0.74 0.00 95 1012.9
20260904102014 79 126 1.0 2.0 0.00 0.74 0.00 95 1012.9
20260904101527 79 111 0.0 2.0 0.00 0.74 0.00 95 1012.8
20260904101016 79 93 0.0 2.0 0.00 0.74 0.00 95 1012.8
20260904100522 79 137 1.0 2.0 0.00 0.74 0.00 95 1012.8
20260904100008 79 51 0.0 2.0 0.00 0.74 0.00 95 1012.7
20260904095509 79 137 0.0 2.0 0.00 0.74 0.00 95 1012.7
20260904095010 79 119 0.0 2.0 0.00 0.74 0.00 95 1012.8
20260904094520 79 76 0.0 1.0 0.00 0.74 0.00 95 1012.8
20260904094014 79 51 0.0 1.0 0.00 0.74 0.00 95 1012.6
20260904093514 79 51 0.0 4.0 0.00 0.74 0.00 95 1012.5
20260904093051 79 146 0.0 4.0 0.00 0.74 0.00 95 1012.6
20260904092519 79 178 0.0 2.0 0.00 0.74 0.00 95 1012.6
20260904092004 79 67 0.0 2.0 0.00 0.74 0.00 95 1012.6
20260904091512 79 93 0.0 2.0 0.00 0.74 0.00 95 1012.6
20260904091011 79 93 1.0 2.0 0.00 0.74 0.00 95 1012.6
20260904090510 79 67 0.0 2.0 0.00 0.74 0.00 95 1012.5
20260904090023 79 93 1.0 2.0 0.00 0.74 0.00 95 1012.5
20260904085520 79 93 0.0 2.0 0.00 0.74 0.00 95 1012.6
20260904085015 79 67 0.0 1.0 0.00 0.74 0.00 95 1012.6
20260904084530 79 153 0.0 2.0 0.00 0.74 0.00 95 1012.6
20260904084003 79 161 0.0 2.0 0.00 0.74 0.00 95 1012.7
20260904083508 79 165 1.0 2.0 0.00 0.74 0.00 95 1012.7
20260904083013 79 93 0.0 1.0 0.00 0.74 0.00 95 1012.7
20260904082514 79 178 0.0 1.0 0.00 0.74 0.00 94 1012.8
20260904082013 80 51 0.0 2.0 0.00 0.74 0.00 94 1012.7
20260904081529 80 93 0.0 2.0 0.00 0.74 0.00 95 1012.8
20260904081016 80 93 0.0 1.0 0.00 0.74 0.00 94 1012.8
20260904080517 80 93 0.0 1.0 0.00 0.74 0.00 94 1012.8
20260904080010 80 51 0.0 1.0 0.00 0.74 0.00 94 1012.8
20260904075508 80 178 0.0 1.0 0.00 0.74 0.00 94 1012.9
20260904075008 80 119 0.0 2.0 0.00 0.74 0.00 94 1012.8
20260904074517 80 93 0.0 2.0 0.00 0.74 0.00 94 1012.9
20260904074011 80 93 0.0 2.0 0.00 0.74 0.00 94 1012.9
20260904073516 80 93 0.0 2.0 0.00 0.74 0.00 94 1013.0
20260904073047 80 93 0.0 2.0 0.00 0.74 0.00 94 1012.9
20260904072517 80 76 1.0 2.0 0.00 0.74 0.00 94 1013.0
20260904072006 80 165 0.0 4.0 0.00 0.74 0.00 94 1012.9
20260904071510 80 126 1.0 4.0 0.00 0.74 0.00 94 1013.0
20260904071010 80 137 0.0 4.0 0.00 0.74 0.00 94 1013.1
20260904070513 80 93 0.0 3.0 0.00 0.74 0.00 94 1013.1
20260904070023 80 146 0.0 3.0 0.00 0.74 0.00 94 1013.1
20260904065515 80 148 1.0 4.0 0.00 0.74 0.00 94 1013.1
20260904065014 80 178 0.0 4.0 0.00 0.74 0.00 94 1013.1
20260904064529 80 178 0.0 5.0 0.00 0.74 0.00 94 1013.1
20260904064008 80 165 0.0 5.0 0.00 0.74 0.00 94 1013.2
20260904063509 80 178 2.0 6.0 0.00 0.74 0.00 94 1013.2
20260904063018 80 150 2.0 6.0 0.00 0.74 0.00 94 1013.2
20260904062518 80 137 1.0 4.0 0.00 0.74 0.00 94 1013.2
20260904062013 80 178 2.0 4.0 0.00 0.74 0.00 94 1013.2
20260904061525 80 178 1.0 6.0 0.00 0.74 0.00 94 1013.1
20260904061014 80 170 2.0 6.0 0.00 0.74 0.00 94 1013.1
20260904060518 80 153 2.0 6.0 0.00 0.74 0.00 94 1013.1
20260904060011 80 146 3.0 6.0 0.00 0.74 0.00 94 1013.1
20260904055508 80 178 2.0 5.0 0.00 0.74 0.00 94 1013.0
20260904055013 80 193 2.0 7.0 0.00 0.74 0.00 94 1013.0
20260904054519 80 164 3.0 7.0 0.00 0.74 0.00 94 1013.1
20260904054018 80 152 2.0 5.0 0.00 0.74 0.00 94 1013.1
20260904053514 80 178 2.0 5.0 0.00 0.74 0.00 94 1013.1
20260904053033 80 194 2.0 5.0 0.00 0.74 0.00 94 1013.1
20260904052519 80 153 2.0 5.0 0.00 0.74 0.00 94 1013.1
20260904052008 80 148 1.0 4.0 0.00 0.74 0.00 94 1013.1
20260904051515 80 168 2.0 6.0 0.00 0.74 0.00 94 1013.1
20260904051012 80 139 2.0 6.0 0.00 0.74 0.00 94 1013.0
20260904050513 80 165 2.0 5.0 0.00 0.74 0.00 94 1013.0
20260904050024 80 196 1.0 6.0 0.00 0.74 0.00 94 1013.0
20260904045517 80 146 1.0 7.0 0.00 0.74 0.74 94 1013.0
20260904045017 80 178 2.0 8.0 0.00 0.74 0.74 94 1013.1
20260904044531 80 173 3.0 8.0 0.00 0.74 0.74 94 1013.1
20260904044008 80 211 2.0 8.0 0.00 0.74 0.74 94 1013.1
20260904043511 80 146 3.0 6.0 0.00 0.74 0.74 94 1013.1
20260904043017 80 188 3.0 7.0 0.00 0.74 0.74 94 1013.0
20260904042515 80 165 3.0 7.0 0.00 0.74 0.74 94 1013.0
20260904042016 80 173 3.0 7.0 0.00 0.74 0.74 95 1013.0
20260904041530 80 171 2.0 7.0 0.00 0.74 0.74 95 1013.0
20260904041017 80 171 2.0 7.0 0.00 0.74 0.74 95 1012.9
20260904040514 80 193 3.0 7.0 0.00 0.74 0.74 95 1013.0
20260904040011 80 202 2.0 7.0 0.00 0.74 0.74 95 1013.0
20260904035508 80 191 2.0 6.0 0.00 0.74 0.74 95 1013.0
20260904035014 80 178 2.0 6.0 0.00 0.74 0.74 95 1013.1
20260904034526 80 163 2.0 6.0 0.00 0.74 0.74 95 1013.1
20260904034017 80 189 2.0 6.0 0.00 0.74 0.74 95 1013.1
20260904033517 80 155 2.0 5.0 0.00 0.74 0.74 95 1013.1
20260904033037 80 193 1.0 5.0 0.00 0.74 0.74 95 1013.1
20260904032517 80 205 1.0 7.0 0.00 0.74 0.74 95 1013.1